This demonstration page uses our WeatherBlox Daily Observations layout. Learn more.

Left ArrowRight Arrow

Hourly Observations for October 24, 2021

Temp ( °F °C ) Dew Point ( °F °C ) Humidity (%) Winds ( mph kmh ) Pressure ( in mb ) Visibility ( mi km ) Precip ( " mm )
12:15 am 00:15 Cloudy with Mist and Fog 51 10.6 50 10.2 97 97 ENE 8 13 29.68 1005 2 3 N/A
12:35 am 00:35 Cloudy with Mist and Fog 51 10.5 50 10.1 97 97 ENE 9 15 29.67 1005 3 4 N/A
12:55 am 00:55 Cloudy with Mist and Fog 51 10.5 50 10.1 97 97 NE 9 15 29.67 1005 3 4 N/A
1:15 am 01:15 Cloudy with Mist and Fog 51 10.5 50 10.1 97 97 NE 9 15 29.67 1005 3 4 N/A
1:35 am 01:35 Cloudy with Mist and Fog 51 10.5 50 10.1 97 97 NNE 12 19 29.68 1005 2 3 N/A
1:55 am 01:55 Cloudy with Light Rain 51 10.3 50 10 98 98 N 12 19 29.68 1005 3 4 N/A
2:15 am 02:15 Cloudy with Mist and Fog 51 10.3 50 10 98 98 N 10 17 29.69 1005 2 3 N/A
2:35 am 02:35 Cloudy with Drizzle 50 10.2 50 10 99 99 N 13 20 29.68 1005 3 4 0.01 0.25
2:55 am 02:55 Cloudy with Light Rain 50 10 49 9.7 98 98 N 13 20 29.67 1005 3 5 0.01 0.25
3:15 am 03:15 Cloudy with Mist and Fog 50 9.8 49 9.5 98 98 N 13 20 29.67 1005 3 5 N/A
3:35 am 03:35 Cloudy with Mist and Fog 49 9.7 49 9.5 99 99 N 12 19 29.68 1005 3 5 N/A
3:55 am 03:55 Cloudy with Mist and Fog 49 9.7 49 9.5 99 99 NNE 14 22 29.66 1004 5 8 N/A
4:15 am 04:15 Cloudy with Mist and Fog 49 9.5 49 9.2 98 98 NNE 15 24 29.67 1005 5 8 N/A
4:35 am 04:35 Cloudy 48 9 47 8.6 97 97 NNE 16 26 29.66 1004 7 11 N/A
4:55 am 04:55 Cloudy with Mist and Fog 47 8.6 47 8.2 97 97 NNE 15 24 29.68 1005 5 8 N/A
5:15 am 05:15 Cloudy 47 8.6 47 8.2 97 97 N 15 24 29.69 1005 7 11 N/A
5:35 am 05:35 Cloudy 47 8.3 46 8 98 98 NNE 15 24 29.68 1005 10 16 N/A
5:55 am 05:55 Cloudy 47 8.1 46 7.6 97 97 NNE 16 26 29.67 1005 10 16 N/A
6:15 am 06:15 Cloudy 46 7.8 45 7.3 97 97 NNE 16 26 29.69 1005 10 16 N/A
6:35 am 06:35 Cloudy 46 7.6 45 7.1 97 97 NNE 16 26 29.70 1006 10 16 N/A
6:55 am 06:55 Cloudy 46 7.6 45 7 96 96 NNE 15 24 29.70 1006 10 16 N/A
7:15 am 07:15 Cloudy 46 7.5 45 7 97 97 NNE 15 24 29.69 1006 10 16 N/A
7:35 am 07:35 Cloudy 46 7.5 45 7 97 97 NNE 12 19 29.69 1006 10 16 N/A
7:55 am 07:55 Cloudy 46 7.5 45 7 97 97 N 9 15 29.71 1006 10 16 N/A
8:15 am 08:15 Cloudy 45 7.4 44 6.8 96 96 NNE 14 22 29.70 1006 10 16 N/A
8:35 am 08:35 Cloudy 46 7.5 44 6.8 95 95 NW 12 19 29.74 1007 10 16 N/A
8:55 am 08:55 Cloudy 46 7.5 44 6.8 95 95 NNW 10 17 29.75 1008 10 16 N/A
9:15 am 09:15 Cloudy 46 7.6 44 6.8 95 95 NNW 7 11 29.75 1008 10 16 N/A
9:35 am 09:35 Cloudy with Light Rain 46 7.7 44 6.7 93 93 NNW 7 11 29.75 1008 10 16 N/A
9:55 am 09:55 Cloudy 46 7.8 44 6.6 92 92 NNW 9 15 29.74 1007 10 16 N/A
10:15 am 10:15 Cloudy 46 8 44 6.6 91 91 NNW 7 11 29.74 1007 10 16 N/A
10:35 am 10:35 Cloudy 47 8.5 44 6.8 89 89 NNW 10 17 29.74 1007 10 16 N/A
10:55 am 10:55 Cloudy 48 9.1 45 7.2 88 88 NW 10 17 29.73 1007 10 16 N/A
11:15 am 11:15 Cloudy 49 9.7 46 7.5 86 86 NW 13 20 29.74 1007 10 16 N/A
11:35 am 11:35 Cloudy 51 10.4 46 7.8 84 84 NW 15 24 29.74 1007 10 16 N/A
11:55 am 11:55 Mostly Cloudy 52 11.3 47 8.1 81 81 NNW 12 19 29.73 1007 10 16 N/A
12:15 pm 12:15 Mostly Cloudy 54 12.1 47 8.1 77 77 NNW 14 22 29.73 1007 10 16 N/A
12:35 pm 12:35 Cloudy 55 13 47 8.4 74 74 NNW 14 22 29.73 1007 10 16 N/A
12:55 pm 12:55 Cloudy 56 13.5 47 8.1 70 70 NNW 12 19 29.73 1007 10 16 N/A
1:15 pm 13:15 Mostly Cloudy 58 14.2 47 8.4 68 68 N 17 28 29.72 1006 10 16 N/A
1:35 pm 13:35 Partly Cloudy 59 14.9 47 8.6 66 66 NNW 13 20 29.71 1006 10 16 N/A
1:55 pm 13:55 Sunny 61 16 47 8.6 62 62 N 14 22 29.69 1005 10 16 N/A
2:15 pm 14:15 Sunny 61 16.3 47 8.5 60 60 N 13 20 29.69 1005 10 16 N/A
2:35 pm 14:35 Sunny 62 16.8 47 8.4 58 58 N 12 19 29.68 1005 10 16 N/A
2:55 pm 14:55 Sunny 63 17.1 47 8.3 56 56 N 12 19 29.68 1005 10 16 N/A
3:15 pm 15:15 Sunny 63 17.3 47 8.1 55 55 N 9 15 29.69 1005 10 16 N/A
3:35 pm 15:35 Sunny 64 17.5 47 8.2 55 55 N 10 17 29.69 1005 10 16 N/A
3:55 pm 15:55 Partly Cloudy 64 17.5 47 8.2 55 55 N 8 13 29.70 1006 10 16 N/A
4:15 pm 16:15 Mostly Cloudy 63 17.3 47 8.1 55 55 N 10 17 29.72 1006 10 16 N/A
4:35 pm 16:35 Cloudy 64 17.5 46 8 54 54 N 12 19 29.73 1007 10 16 N/A
4:55 pm 16:55 Mostly Cloudy 62 16.7 47 8.1 57 57 N 6 9 29.74 1007 10 16 N/A
5:15 pm 17:15 Mostly Cloudy 64 18 45 7.1 49 49 N 14 22 29.74 1007 10 16 N/A
5:35 pm 17:35 Partly Cloudy 62 16.7 44 6.8 52 52 NNW 12 19 29.77 1008 10 16 N/A
5:55 pm 17:55 Mostly Cloudy 61 16.2 44 6.7 54 54 NNW 10 17 29.77 1008 10 16 N/A
6:15 pm 18:15 Partly Cloudy 60 15.6 45 7 57 57 N 9 15 29.78 1009 10 16 N/A
6:35 pm 18:35 Partly Cloudy 59 14.8 45 7 60 60 NNW 8 13 29.80 1009 10 16 N/A
6:55 pm 18:55 Partly Cloudy 57 14.1 44 6.7 61 61 NNW 7 11 29.82 1010 10 16 N/A
7:15 pm 19:15 Partly Cloudy 56 13.4 44 6.6 64 64 NNW 7 11 29.83 1010 10 16 N/A
7:35 pm 19:35 Clear 50 10.2 44 6.8 80 80 ENE 6 9 29.88 1012 10 16 N/A
7:55 pm 19:55 Partly Cloudy 48 8.8 44 6.5 86 86 N N/A 29.91 1013 10 16 N/A
8:15 pm 20:15 Partly Cloudy 47 8.6 44 6.4 86 86 N N/A 29.94 1014 10 16 N/A
8:35 pm 20:35 Mostly Cloudy 46 7.8 43 6.1 89 89 N N/A 29.96 1015 10 16 N/A
8:55 pm 20:55 Partly Cloudy 44 6.9 41 5.1 88 88 N 6 9 29.97 1015 10 16 N/A
9:15 pm 21:15 Clear 43 6 40 4.7 91 91 NNE 7 11 29.98 1015 10 16 N/A
9:35 pm 21:35 Clear 42 5.8 40 4.7 93 93 NNE 5 7 29.98 1015 10 16 N/A
9:55 pm 21:55 Clear 44 6.6 42 5.6 93 93 N N/A 29.98 1015 10 16 N/A
10:15 pm 22:15 Clear 42 5.5 40 4.5 93 93 NNE 7 11 30.00 1016 10 16 N/A
10:35 pm 22:35 Clear 40 4.7 39 4 95 95 NNE 7 11 30.01 1016 10 16 N/A
10:55 pm 22:55 Clear 42 5.8 41 5.2 96 96 NE 3 6 30.01 1016 10 16 N/A
11:15 pm 23:15 Clear 43 5.9 41 5.1 95 95 N N/A 30.01 1016 10 16 N/A
11:35 pm 23:35 Clear 41 5 40 4.3 95 95 NNW 3 6 30.03 1017 10 16 N/A
11:55 pm 23:55 Clear 42 5.3 40 4.6 95 95 N N/A 30.04 1017 10 16 N/A

Powered by AerisWeather